Elia Basile

Scout - Inter
25 Nov 2027
Donnerstag
Verarbeitung

Persönlichkeit

Anpassungsfähigkeit (9) Ehrgeiz (10) Kontroverse (3) Loyalität (19) Druck (9) Professionalität (12) Fairness (12) Temperament (5)

Profil

Trainerstil Demokratisch
Lizenz Kontinentale Pro
Entschlossenheit 10
Menschenführung 11
Motivation 7
Disziplin 6
Arbeitszufriedenheit
100%
Ermüdung
0%
Rolle Scout
Gehalt 95.4K p/W
Vertrag 14.03.2028

Leistung

Verhalten Gut
Trainingseffektivität
68%
Spielerentwicklung
45%
Verletzungsprävention
80%
Taktische Umsetzung
65%

Letzte Ereignisse

Nahm an einer Scouting-Besprechung teil 7T her
Nahm an einer Scouting-Besprechung teil 7T her
Nahm an einer Scouting-Besprechung teil 14T her
Nahm an einer Scouting-Besprechung teil 14T her
Nahm an einer Scouting-Besprechung teil 21T her
Nahm an einer Scouting-Besprechung teil 21T her
Nahm an einer Scouting-Besprechung teil 28T her
Nahm an einer Scouting-Besprechung teil 28T her

Aktuell beobachtet

95
Spieler Verein Status Fähigkeit Vertrauen Beobachtet Zuletzt beobachtet Letzte Stimme
Jayden Addai Como Aktiv 129 / 137 58% 1 01.06.2027 -
Yankuba Minteh Brighton Aktiv 145 / 154 40% 3 30.05.2027 -
Arthur Atta Fiorentina Aktiv 147 / 144 40% 5 30.05.2027 -
Facundo Di Biasi Gimnasia La Plata Aktiv 123 / 124 40% 1 30.05.2027 -
Wesley AS Roma Aktiv 157 / 150 40% 9 28.05.2027 -
Víctor Muñoz Liverpool Aktiv 143 / 145 40% 5 28.05.2027 -
Matías Soulé AS Roma Aktiv 168 / 156 40% 5 27.05.2027 -
Mika Godts Paris Saint-Germain Aktiv 138 / 141 40% 4 27.05.2027 -
Jesús Rodríguez Como Aktiv 148 / 147 40% 9 26.05.2027 -
Jofre Torrents Ajax Aktiv 123 / 128 40% 2 26.05.2027 -
Luka Vušković Manchester United Aktiv 139 / 147 40% 2 26.05.2027 -
Tyler Dibling Chelsea Aktiv 149 / 143 40% 2 26.05.2027 -
Assane Diao Lazio Aktiv 139 / 147 40% 12 25.05.2027 -
Yussif Saidu Zaragoza Aktiv 124 / 127 40% 2 25.05.2027 -
Ezra Mayers West Ham United Aktiv 122 / 126 40% 1 22.05.2027 -
Santiago Castro AS Roma Aktiv 151 / 149 40% 6 20.05.2027 -
Juan Rodríguez Cagliari Aktiv 129 / 126 40% 1 20.05.2027 -
Yasin Ayari Arsenal Aktiv 144 / 146 40% 4 18.05.2027 -
Valentin Atangana Al-Ahli Aktiv 114 / 135 40% 4 18.05.2027 -
Veljko Milosavljević Aston Villa Aktiv 124 / 139 40% 2 18.05.2027 -
Edoardo Motta Lazio Aktiv 116 / 127 40% 1 15.05.2027 -
Chemsdine Talbi Chelsea Aktiv 150 / 142 40% 5 11.05.2027 -
Matías Fernández-Pardo Newcastle United Aktiv 150 / 144 40% 1 10.05.2027 -
Josh Doig Sassuolo Aktiv 132 / 134 40% 1 07.05.2027 -
Kota Tawaratsumida River Plate Aktiv 138 / 141 40% 5 05.05.2027 -
Jhon Jhon Zenit Aktiv 128 / 136 40% 1 05.05.2027 -
Karim Coulibaly RC Strasbourg Aktiv 116 / 131 40% 2 03.05.2027 -
Juan Giménez Celta Aktiv 126 / 121 40% 1 23.04.2027 -
Ilias Akhomach Villarreal Aktiv 137 / 144 40% 2 21.04.2027 -
Sascha Britschgi Padova Aktiv 125 / 127 40% 2 20.04.2027 -
Ander Astralaga Real Sociedad Aktiv 129 / 131 40% 1 20.04.2027 -
Finn Jeltsch VfB Stuttgart Aktiv 141 / 140 40% 1 15.04.2027 -
Christ Inao Oulaï Fiorentina Aktiv 134 / 138 55% 3 13.04.2027 -
Josh King Chelsea Aktiv 142 / 144 40% 2 12.04.2027 -
Nicolò Savona Nottingham Forest Aktiv 151 / 142 40% 2 03.04.2027 -
Kenneth Taylor Lazio Aktiv 141 / 151 40% 6 30.03.2027 -
Devyne Rensch AS Roma Aktiv 152 / 139 40% 4 22.03.2027 -
Dean Huijsen Villarreal Aktiv 136 / 147 40% 2 09.03.2027 -
Abubacarr Sedi Kinteh Al-Hilal Aktiv 115 / 130 40% 1 09.03.2027 -
Santiago Fernández Talleres Aktiv 126 / 124 40% 1 08.03.2027 -
Ignacio Perruzzi San Lorenzo Aktiv 126 / 128 40% 1 06.03.2027 -
Antonio Vergara Napoli Aktiv 130 / 138 40% 1 02.03.2027 -
Lucas Da Cunha Como Aktiv 150 / 143 40% 2 28.12.2026 -
Ibrahim Maza Bayer Leverkusen Aktiv 136 / 145 40% 4 27.12.2026 -
Borja Sainz Fiorentina Aktiv 154 / 147 40% 2 26.12.2026 -
Nicolò Zaniolo Udinese Aktiv 157 / 138 40% 3 22.12.2026 -
Billy Gilmour Napoli Aktiv 141 / 149 40% 1 22.12.2026 -
Donyell Malen AS Roma Aktiv 163 / 148 40% 4 21.12.2026 -
Yan Diomandé Real Madrid Aktiv 141 / 156 40% 4 20.12.2026 -
Nuno Tavares Lazio Aktiv 135 / 147 40% 3 17.12.2026 -
Rômulo RB Leipzig Aktiv 152 / 144 40% 3 17.12.2026 -
Gustav Isaksen Lazio Aktiv 140 / 143 40% 2 15.12.2026 -
Samú Al-Nassr Aktiv 135 / 147 40% 2 08.12.2026 -
Valentín Barco Chelsea Aktiv 146 / 146 40% 1 06.12.2026 -
Senny Mayulu Paris Saint-Germain Aktiv 150 / 148 40% 4 03.12.2026 -
Giacomo Raspadori Atalanta Aktiv 161 / 145 40% 5 02.12.2026 -
Warren Zaïre-Emery Paris Saint-Germain Aktiv 163 / 163 40% 1 02.12.2026 -
Gustavo Puerta Olympiacos Aktiv 138 / 140 40% 2 28.11.2026 -
Razvan Balasa Crvena Zvezda Aktiv 168 / 149 40% 1 27.11.2026 -
Raoul Bellanova Atalanta Aktiv 139 / 148 40% 2 12.11.2026 -
Manu Koné AS Roma Aktiv 152 / 162 40% 2 10.11.2026 -
Romano Schmid Frosinone Aktiv 148 / 143 40% 2 10.11.2026 -
Orkun Kökçü Besiktas Aktiv 165 / 147 40% 1 07.11.2026 -
Barış Alper Yılmaz Galatasaray Aktiv 147 / 150 40% 2 04.11.2026 -
Dodo Fiorentina Aktiv 159 / 147 40% 1 29.10.2026 -
Rodrigo Gomes Wolverhampton Aktiv 135 / 140 40% 2 22.10.2026 -
Yehor Yarmoliuk Brentford Aktiv 141 / 149 40% 1 22.10.2026 -
Xavi Simons Tottenham Aktiv 147 / 156 40% 2 20.10.2026 -
Moisés Caicedo Chelsea Aktiv 168 / 170 40% 6 19.10.2026 Beobachten
Carlos Vicente Birmingham Aktiv 147 / 139 40% 1 19.10.2026 -
Nico González Newcastle United Aktiv 152 / 159 40% 5 16.10.2026 -
Rayan Cherki Manchester City Aktiv 172 / 164 40% 4 16.10.2026 -
Tino Livramento Newcastle United Aktiv 165 / 156 40% 3 15.10.2026 -
Enzo Fernández Manchester City Aktiv 163 / 167 40% 1 15.10.2026 -
Adrien Truffert Bournemouth Aktiv 155 / 148 40% 1 13.10.2026 -
Morgan Rogers Chelsea Aktiv 152 / 160 40% 2 08.10.2026 -
Nico O'Reilly Manchester City Aktiv 139 / 155 40% 1 08.10.2026 -
Kai Havertz Arsenal Aktiv 152 / 159 40% 3 07.10.2026 -
Dominik Szoboszlai Liverpool Aktiv 155 / 166 40% 2 07.10.2026 -
Hugo Ekitiké Liverpool Aktiv 150 / 160 40% 3 05.10.2026 -
Sandro Tonali Tottenham Aktiv 173 / 171 40% 1 05.10.2026 -
Dango Ouattara Brentford Aktiv 153 / 143 40% 2 04.10.2026 -
Boubacar Kamara Aston Villa Aktiv 171 / 165 40% 2 28.09.2026 -
Gonzalo Fulham Aktiv 149 / 146 40% 1 27.09.2026 -
Bradley Barcola Liverpool Aktiv 163 / 163 40% 1 27.09.2026 -
Adam Wharton Crystal Palace Aktiv 145 / 151 40% 2 21.09.2026 -
Alexis Mac Allister Liverpool Aktiv 153 / 160 40% 1 17.09.2026 -
Gabriel Martinelli Brighton Verhandlung 164 / 161 40% 1 17.09.2026 -
Mason Mount Manchester United Aktiv 147 / 149 40% 1 15.09.2026 -
Elliot Anderson Manchester City Aktiv 152 / 152 40% 1 14.09.2026 -
Ryan Gravenberch Liverpool Aktiv 169 / 159 40% 1 13.09.2026 -
Amad Manchester United Aktiv 160 / 153 40% 1 12.09.2026 -
Éderson Feyenoord Aktiv 161 / 158 40% 1 10.09.2026 -
Rico Lewis Manchester City Aktiv 150 / 154 40% 1 09.09.2026 -
Jeremie Frimpong Liverpool Aktiv 163 / 157 40% 1 07.09.2026 -